When you browse on this site, cookies collect data to enhance your experience and personalize the content and advertising you see.
Visit our Privacy Policy to learn more. By continuing to use the site, you agree to this use of cookies and data.
  • In Romania
  • List of Countries
  • For 7 days
  • Water Temperature
  • Satellite Maps
  • Weather Map
  • Weather Widgets
  • user-avatar
    Login

    Hourly Weather Kanino

    Today, 19 February, Tuesday

    Time Temperature Precipitation Wind Pressure Humidity
    00:00 -12°C° 0 mm 5 mps 751 mmHg 84%
    01:00 -12°C° 0 mm 5 mps 752 mmHg 85%
    02:00 -13°C° 0 mm 5 mps 752 mmHg 86%
    03:00 -13°C° 0 mm 5 mps 752 mmHg 87%
    04:00 -13°C° 0 mm 5 mps 753 mmHg 88%
    05:00 -14°C° 0 mm 4 mps 753 mmHg 89%
    06:00 -14°C° 0 mm 4 mps 754 mmHg 90%
    07:00 -14°C° 0 mm 4 mps 755 mmHg 90%
    08:00 -14°C° 0 mm 4 mps 755 mmHg 90%
    09:00 -14°C° 0 mm 4 mps 756 mmHg 90%
    10:00 -12°C° 0 mm 3 mps 756 mmHg 88%
    11:00 -10°C° 0 mm 3 mps 756 mmHg 87%
    12:00 -9°C° 0 mm 3 mps 756 mmHg 86%
    13:00 -9°C° 0 mm 3 mps 756 mmHg 85%
    14:00 -8°C° 0 mm 3 mps 756 mmHg 85%
    15:00 -8°C° 0 mm 3 mps 756 mmHg 85%
    16:00 -9°C° 0 mm 4 mps 755 mmHg 86%
    17:00 -10°C° 0 mm 4 mps 755 mmHg 87%
    18:00 -11°C° 0 mm 4 mps 755 mmHg 89%
    19:00 -11°C° 0 mm 4 mps 755 mmHg 89%
    20:00 -12°C° 0 mm 5 mps 754 mmHg 89%
    21:00 -11°C° 0 mm 5 mps 754 mmHg 89%
    22:00 -11°C° 0 mm 5 mps 754 mmHg 90%
    23:00 -11°C° 0 mm 5 mps 753 mmHg 90%

    Tomorrow, 20 February, Wednesday

    Time Temperature Precipitation Wind Pressure Humidity
    00:00 -11°C° 0 mm 5 mps 753 mmHg 91%
    01:00 -11°C° 0 mm 5 mps 753 mmHg 91%
    02:00 -11°C° 0 mm 5 mps 753 mmHg 90%
    03:00 -11°C° 0 mm 5 mps 752 mmHg 90%
    04:00 -11°C° 0 mm 5 mps 752 mmHg 89%
    05:00 -11°C° 0 mm 5 mps 751 mmHg 88%
    06:00 -11°C° 0 mm 5 mps 751 mmHg 87%
    07:00 -11°C° 0 mm 5 mps 751 mmHg 87%
    08:00 -10°C° 0 mm 6 mps 750 mmHg 86%
    09:00 -10°C° 0 mm 6 mps 750 mmHg 85%
    10:00 -8°C° 0 mm 6 mps 749 mmHg 84%
    11:00 -7°C° 0 mm 7 mps 749 mmHg 82%
    12:00 -6°C° 0 mm 7 mps 749 mmHg 81%
    13:00 -4°C° 0 mm 7 mps 748 mmHg 81%
    14:00 -4°C° 0 mm 7 mps 748 mmHg 81%
    15:00 -4°C° 0 mm 7 mps 748 mmHg 81%
    16:00 -4°C° 0 mm 7 mps 748 mmHg 83%
    17:00 -4°C° 0 mm 6 mps 747 mmHg 85%
    18:00 -4°C° 0 mm 6 mps 747 mmHg 87%
    19:00 -4°C° 0.1 mm 6 mps 747 mmHg 89%
    20:00 -4°C° 0.1 mm 6 mps 746 mmHg 90%
    21:00 -3°C° 0.1 mm 6 mps 746 mmHg 91%
    22:00 -3°C° 0.1 mm 6 mps 746 mmHg 92%
    23:00 -3°C° 0.1 mm 6 mps 746 mmHg 92%

    Day after tomorrow, 21 February, Thursday

    Time Temperature Precipitation Wind Pressure Humidity
    00:00 -3°C° 0.1 mm 6 mps 745 mmHg 92%
    01:00 -3°C° 0.2 mm 6 mps 745 mmHg 93%
    02:00 -1°C° 0.2 mm 5 mps 745 mmHg 94%
    03:00 -1°C° 0.2 mm 4 mps 744 mmHg 94%
    04:00 -2°C° 0 mm 4 mps 744 mmHg 94%
    05:00 -2°C° 0 mm 4 mps 744 mmHg 95%
    06:00 -2°C° 0 mm 4 mps 743 mmHg 95%
    07:00 -2°C° 0 mm 4 mps 743 mmHg 95%
    08:00 -2°C° 0 mm 5 mps 743 mmHg 96%
    09:00 -2°C° 0 mm 5 mps 742 mmHg 96%
    10:00 -2°C° 0.1 mm 5 mps 742 mmHg 97%
    11:00 -1°C° 0.1 mm 5 mps 741 mmHg 97%
    12:00 -1°C° 0.1 mm 5 mps 741 mmHg 97%
    13:00 -1°C° 0.3 mm 5 mps 741 mmHg 97%
    14:00 -1°C° 0.3 mm 5 mps 740 mmHg 96%
    15:00 -1°C° 0.3 mm 5 mps 740 mmHg 96%
    16:00 -2°C° 0.2 mm 5 mps 740 mmHg 92%
    17:00 -4°C° 0.2 mm 5 mps 740 mmHg 89%
    18:00 -6°C° 0.2 mm 5 mps 740 mmHg 86%
    19:00 -6°C° 0 mm 5 mps 740 mmHg 88%
    20:00 -6°C° 0 mm 5 mps 740 mmHg 90%
    21:00 -5°C° 0 mm 4 mps 740 mmHg 92%
    22:00 -6°C° 0.3 mm 5 mps 740 mmHg 92%
    23:00 -6°C° 0.3 mm 5 mps 740 mmHg 93%

    22 February, Friday

    Time Temperature Precipitation Wind Pressure Humidity
    00:00 -5°C° 0.3 mm 5 mps 740 mmHg 94%
    01:00 -6°C° 0.2 mm 5 mps 740 mmHg 93%
    02:00 -6°C° 0.2 mm 5 mps 740 mmHg 92%
    03:00 -8°C° 0.2 mm 6 mps 740 mmHg 92%
    04:00 -8°C° 0.1 mm 6 mps 741 mmHg 91%
    05:00 -6°C° 0.1 mm 6 mps 741 mmHg 90%
    06:00 -6°C° 0.1 mm 6 mps 741 mmHg 90%
    07:00 -8°C° 0 mm 7 mps 741 mmHg 89%
    08:00 -9°C° 0 mm 7 mps 742 mmHg 88%
    09:00 -11°C° 0 mm 7 mps 743 mmHg 86%
    10:00 -11°C° 0 mm 7 mps 743 mmHg 86%
    11:00 -10°C° 0 mm 6 mps 744 mmHg 85%
    12:00 -10°C° 0 mm 6 mps 744 mmHg 85%
    13:00 -10°C° 0.1 mm 6 mps 745 mmHg 85%
    14:00 -11°C° 0.1 mm 6 mps 745 mmHg 85%
    15:00 -11°C° 0.1 mm 6 mps 746 mmHg 84%
    16:00 -12°C° 0.1 mm 5 mps 746 mmHg 85%
    17:00 -12°C° 0.1 mm 5 mps 747 mmHg 86%
    18:00 -12°C° 0.1 mm 4 mps 748 mmHg 87%
    19:00 -14°C° 0 mm 4 mps 748 mmHg 88%
    20:00 -14°C° 0 mm 3 mps 749 mmHg 90%
    21:00 -14°C° 0 mm 3 mps 749 mmHg 91%
    22:00 -15°C° 0 mm 3 mps 750 mmHg 92%
    23:00 -16°C° 0 mm 3 mps 750 mmHg 93%

    23 February, Saturday

    Time Temperature Precipitation Wind Pressure Humidity
    00:00 -16°C° 0 mm 3 mps 751 mmHg 94%
    01:00 -16°C° 0 mm 2 mps 751 mmHg 94%
    02:00 -16°C° 0 mm 2 mps 752 mmHg 94%
    03:00 -16°C° 0 mm 2 mps 752 mmHg 95%
    04:00 -16°C° 0 mm 2 mps 753 mmHg 95%
    05:00 -17°C° 0 mm 2 mps 753 mmHg 95%
    06:00 -17°C° 0 mm 2 mps 754 mmHg 95%
    07:00 -16°C° 0 mm 2 mps 754 mmHg 95%
    08:00 -16°C° 0 mm 2 mps 755 mmHg 94%
    09:00 -15°C° 0 mm 2 mps 755 mmHg 94%
    10:00 -14°C° 0 mm 2 mps 756 mmHg 92%
    11:00 -13°C° 0 mm 2 mps 756 mmHg 89%
    12:00 -12°C° 0 mm 2 mps 756 mmHg 87%
    13:00 -12°C° 0 mm 2 mps 757 mmHg 86%
    14:00 -9°C° 0 mm 1 mps 757 mmHg 84%
    15:00 -9°C° 0 mm 1 mps 757 mmHg 83%
    16:00 -9°C° 0 mm 1 mps 758 mmHg 85%
    17:00 -10°C° 0 mm 1 mps 758 mmHg 87%
    18:00 -11°C° 0 mm 0 mps 758 mmHg 89%
    19:00 -11°C° 0 mm 1 mps 759 mmHg 90%
    20:00 -12°C° 0 mm 1 mps 759 mmHg 91%
    21:00 -12°C° 0 mm 1 mps 759 mmHg 92%
    22:00 -13°C° 0 mm 1 mps 760 mmHg 92%
    23:00 -15°C° 0 mm 2 mps 760 mmHg 93%

    24 February, Sunday

    Time Temperature Precipitation Wind Pressure Humidity
    00:00 -15°C° 0 mm 2 mps 760 mmHg 93%
    01:00 -15°C° 0 mm 2 mps 760 mmHg 94%
    02:00 -16°C° 0 mm 2 mps 761 mmHg 94%
    03:00 -16°C° 0 mm 2 mps 761 mmHg 95%
    04:00 -16°C° 0 mm 2 mps 761 mmHg 95%
    05:00 -16°C° 0 mm 2 mps 761 mmHg 96%
    06:00 -16°C° 0 mm 2 mps 761 mmHg 96%
    07:00 -16°C° 0 mm 2 mps 761 mmHg 96%
    08:00 -16°C° 0 mm 3 mps 762 mmHg 95%
    09:00 -16°C° 0 mm 3 mps 762 mmHg 95%
    10:00 -15°C° 0 mm 3 mps 762 mmHg 94%
    11:00 -14°C° 0 mm 3 mps 762 mmHg 94%
    12:00 -13°C° 0 mm 3 mps 762 mmHg 93%
    13:00 -12°C° 0 mm 3 mps 762 mmHg 92%
    14:00 -12°C° 0 mm 3 mps 762 mmHg 91%
    15:00 -12°C° 0 mm 3 mps 762 mmHg 90%
    16:00 -12°C° 0 mm 3 mps 763 mmHg 91%
    17:00 -13°C° 0 mm 3 mps 763 mmHg 92%
    18:00 -13°C° 0 mm 2 mps 763 mmHg 93%
    19:00 -14°C° 0 mm 2 mps 763 mmHg 93%
    20:00 -14°C° 0 mm 2 mps 763 mmHg 93%
    21:00 -14°C° 0 mm 2 mps 763 mmHg 93%
    22:00 -15°C° 0 mm 2 mps 763 mmHg 93%
    23:00 -15°C° 0 mm 2 mps 763 mmHg 94%
    Show more